| time (UTC) | temp F | wind direction | speed MPH | gust MPH | rain 1hr in | rain 24hr in | rain mn in | humidity % | barometer mb |
| 20260509081506 | 49 | 275 | 0.0 | 2.0 | 0.00 | 0.00 | 0.00 | 88 | 1023.0 |
| 20260509080011 | 49 | 263 | 0.0 | 2.0 | 0.00 | 0.00 | 0.00 | 88 | 1023.0 |
| 20260509074516 | 50 | 243 | 1.0 | 2.0 | 0.00 | 0.00 | 0.00 | 88 | 1023.1 |
| 20260509073022 | 51 | 240 | 0.0 | 2.0 | 0.00 | 0.00 | 0.00 | 87 | 1023.1 |
| 20260509071524 | 51 | 290 | 0.0 | 3.0 | 0.00 | 0.00 | 0.00 | 86 | 1023.1 |
| 20260509070010 | 51 | 232 | 1.0 | 3.0 | 0.00 | 0.00 | 0.00 | 87 | 1023.1 |
| 20260509064515 | 51 | 259 | 0.0 | 2.0 | 0.00 | 0.00 | 0.00 | 87 | 1023.0 |
| 20260509063019 | 51 | 254 | 0.0 | 2.0 | 0.00 | 0.00 | 0.00 | 86 | 1023.1 |
| 20260509061525 | 52 | 254 | 0.0 | 2.0 | 0.00 | 0.00 | 0.00 | 85 | 1023.1 |
| 20260509060024 | 52 | 254 | 0.0 | 0.0 | 0.00 | 0.00 | 0.00 | 85 | 1022.9 |
| 20260509054510 | 53 | 254 | 0.0 | 2.0 | 0.00 | 0.00 | 0.00 | 84 | 1023.0 |
| 20260509053016 | 54 | 254 | 0.0 | 2.0 | 0.00 | 0.00 | 0.00 | 83 | 1023.0 |
| 20260509051521 | 54 | 306 | 1.0 | 2.0 | 0.00 | 0.00 | 0.00 | 81 | 1023.0 |
| 20260509050024 | 55 | 219 | 0.0 | 2.0 | 0.00 | 0.00 | 0.00 | 79 | 1022.8 |
| 20260509044526 | 56 | 219 | 0.0 | 2.0 | 0.00 | 0.00 | 0.00 | 78 | 1022.7 |
| 20260509043017 | 57 | 235 | 1.0 | 2.0 | 0.00 | 0.00 | 0.00 | 76 | 1022.6 |
| 20260509041518 | 59 | 238 | 0.0 | 2.0 | 0.00 | 0.00 | 0.00 | 73 | 1022.4 |
| 20260509040023 | 60 | 236 | 0.0 | 2.0 | 0.00 | 0.00 | 0.00 | 70 | 1022.2 |
| 20260509034539 | 61 | 226 | 1.0 | 2.0 | 0.00 | 0.00 | 0.00 | 69 | 1022.0 |
| 20260509033028 | 63 | 233 | 0.0 | 2.0 | 0.00 | 0.00 | 0.00 | 67 | 1021.9 |
| 20260509031516 | 64 | 248 | 1.0 | 2.0 | 0.00 | 0.00 | 0.00 | 64 | 1021.9 |
| 20260509030021 | 65 | 220 | 1.0 | 3.0 | 0.00 | 0.00 | 0.00 | 60 | 1021.7 |
| 20260509024525 | 67 | 229 | 1.0 | 4.0 | 0.00 | 0.00 | 0.00 | 58 | 1021.6 |
| 20260509023031 | 68 | 224 | 1.0 | 4.0 | 0.00 | 0.00 | 0.00 | 55 | 1021.6 |
| 20260509021512 | 68 | 292 | 1.0 | 3.0 | 0.00 | 0.00 | 0.00 | 54 | 1021.5 |
| 20260509020019 | 67 | 267 | 2.0 | 7.0 | 0.00 | 0.00 | 0.00 | 54 | 1021.5 |
| 20260509014524 | 68 | 294 | 1.0 | 3.0 | 0.00 | 0.00 | 0.00 | 53 | 1021.5 |
| 20260509013008 | 68 | 277 | 1.0 | 6.0 | 0.00 | 0.00 | 0.00 | 52 | 1021.6 |
| 20260509011512 | 69 | 292 | 3.0 | 8.0 | 0.00 | 0.00 | 0.00 | 51 | 1021.7 |
| 20260509010017 | 69 | 218 | 2.0 | 10.0 | 0.00 | 0.00 | 0.00 | 52 | 1021.9 |
| 20260509004504 | 69 | 229 | 2.0 | 7.0 | 0.00 | 0.00 | 0.00 | 52 | 1021.8 |
| 20260509003004 | 69 | 287 | 4.0 | 8.0 | 0.00 | 0.00 | 0.00 | 51 | 1021.8 |
| 20260509001510 | 68 | 338 | 0.0 | 5.0 | 0.00 | 0.00 | 0.00 | 53 | 1021.8 |
| 20260509000016 | 68 | 341 | 2.0 | 9.0 | 0.00 | 0.00 | 0.00 | 55 | 1022.0 |
| 20260508234526 | 67 | 15 | 3.0 | 4.0 | 0.00 | 0.00 | 0.00 | 54 | 1022.0 |
| 20260508233006 | 67 | 342 | 2.0 | 4.0 | 0.00 | 0.00 | 0.00 | 55 | 1022.1 |
| 20260508231509 | 68 | 315 | 0.0 | 4.0 | 0.00 | 0.00 | 0.00 | 53 | 1022.1 |
| 20260508230012 | 67 | 53 | 3.0 | 6.0 | 0.00 | 0.00 | 0.00 | 54 | 1022.1 |
| 20260508224522 | 67 | 139 | 2.0 | 5.0 | 0.00 | 0.00 | 0.00 | 53 | 1022.0 |
| 20260508223004 | 67 | 25 | 1.0 | 5.0 | 0.00 | 0.00 | 0.00 | 54 | 1022.1 |
| 20260508221511 | 66 | 51 | 3.0 | 10.0 | 0.00 | 0.00 | 0.00 | 58 | 1022.2 |
| 20260508220013 | 65 | 112 | 1.0 | 7.0 | 0.00 | 0.00 | 0.00 | 55 | 1022.3 |
| 20260508214523 | 65 | 105 | 3.0 | 13.0 | 0.00 | 0.00 | 0.00 | 57 | 1022.3 |
| 20260508213020 | 66 | 136 | 1.0 | 10.0 | 0.00 | 0.00 | 0.00 | 55 | 1022.4 |
| 20260508211505 | 65 | 53 | 3.0 | 11.0 | 0.00 | 0.00 | 0.00 | 55 | 1022.4 |
| 20260508210011 | 65 | 167 | 2.0 | 9.0 | 0.00 | 0.00 | 0.00 | 54 | 1022.3 |
| 20260508204517 | 64 | 103 | 2.0 | 9.0 | 0.00 | 0.00 | 0.00 | 58 | 1022.4 |
| 20260508203030 | 64 | 121 | 4.0 | 11.0 | 0.00 | 0.00 | 0.00 | 56 | 1022.4 |
| 20260508201522 | 64 | 96 | 4.0 | 10.0 | 0.00 | 0.00 | 0.00 | 54 | 1022.4 |
| 20260508200009 | 64 | 126 | 3.0 | 8.0 | 0.00 | 0.00 | 0.00 | 56 | 1022.5 |
| 20260508194517 | 62 | 90 | 4.0 | 10.0 | 0.00 | 0.00 | 0.00 | 55 | 1022.5 |
| 20260508193019 | 62 | 202 | 3.0 | 8.0 | 0.00 | 0.00 | 0.00 | 58 | 1022.6 |
| 20260508191524 | 62 | 57 | 3.0 | 10.0 | 0.00 | 0.00 | 0.00 | 56 | 1022.7 |
| 20260508190014 | 61 | 201 | 5.0 | 10.0 | 0.00 | 0.00 | 0.00 | 56 | 1022.8 |
| 20260508184522 | 61 | 222 | 3.0 | 12.0 | 0.00 | 0.00 | 0.00 | 58 | 1022.7 |
| 20260508183027 | 60 | 196 | 3.0 | 11.0 | 0.00 | 0.00 | 0.00 | 60 | 1022.7 |
| 20260508181521 | 60 | 230 | 6.0 | 13.0 | 0.00 | 0.00 | 0.00 | 58 | 1022.6 |
| 20260508180026 | 59 | 148 | 4.0 | 18.0 | 0.00 | 0.00 | 0.00 | 60 | 1022.5 |
| 20260508174510 | 59 | 149 | 4.0 | 13.0 | 0.00 | 0.00 | 0.00 | 61 | 1022.4 |
| 20260508173015 | 58 | 112 | 4.0 | 12.0 | 0.00 | 0.00 | 0.00 | 62 | 1022.4 |
| 20260508171518 | 58 | 126 | 4.0 | 9.0 | 0.00 | 0.00 | 0.00 | 68 | 1022.3 |
| 20260508170033 | 57 | 202 | 1.0 | 8.0 | 0.00 | 0.00 | 0.00 | 70 | 1022.1 |
| 20260508164534 | 56 | 105 | 3.0 | 8.0 | 0.00 | 0.00 | 0.00 | 71 | 1022.2 |
| 20260508163015 | 56 | 140 | 1.0 | 9.0 | 0.00 | 0.00 | 0.00 | 72 | 1022.1 |
| 20260508161516 | 55 | 119 | 4.0 | 8.0 | 0.00 | 0.00 | 0.00 | 75 | 1022.1 |
| 20260508160022 | 53 | 135 | 1.0 | 7.0 | 0.00 | 0.00 | 0.00 | 78 | 1021.8 |
| 20260508154504 | 52 | 87 | 2.0 | 5.0 | 0.00 | 0.00 | 0.00 | 80 | 1021.8 |
| 20260508153026 | 51 | 171 | 1.0 | 6.0 | 0.00 | 0.00 | 0.00 | 83 | 1021.8 |
| 20260508151516 | 49 | 344 | 0.0 | 2.0 | 0.00 | 0.00 | 0.00 | 86 | 1021.6 |
| 20260508150021 | 47 | 245 | 1.0 | 2.0 | 0.00 | 0.00 | 0.00 | 88 | 1021.7 |
| 20260508144528 | 47 | 243 | 0.0 | 2.0 | 0.00 | 0.00 | 0.00 | 88 | 1021.5 |
| 20260508143010 | 46 | 243 | 0.0 | 2.0 | 0.00 | 0.00 | 0.00 | 88 | 1021.4 |
| 20260508141513 | 46 | 287 | 0.0 | 2.0 | 0.00 | 0.00 | 0.00 | 88 | 1021.4 |
| 20260508140022 | 45 | 287 | 0.0 | 1.0 | 0.00 | 0.00 | 0.00 | 88 | 1021.4 |
| 20260508134523 | 44 | 241 | 0.0 | 3.0 | 0.00 | 0.00 | 0.00 | 91 | 1021.2 |
| 20260508133010 | 43 | 248 | 0.0 | 2.0 | 0.00 | 0.00 | 0.00 | 91 | 1020.9 |
| 20260508131513 | 43 | 248 | 0.0 | 2.0 | 0.00 | 0.00 | 0.00 | 90 | 1020.7 |
| 20260508130031 | 43 | 248 | 0.0 | 1.0 | 0.00 | 0.00 | 0.00 | 90 | 1020.5 |
| 20260508124521 | 44 | 248 | 0.0 | 2.0 | 0.00 | 0.00 | 0.00 | 89 | 1020.3 |
| 20260508123026 | 44 | 281 | 0.0 | 2.0 | 0.00 | 0.00 | 0.00 | 89 | 1020.1 |
| 20260508121510 | 44 | 204 | 0.0 | 2.0 | 0.00 | 0.00 | 0.00 | 90 | 1019.9 |
| 20260508120012 | 44 | 155 | 0.0 | 2.0 | 0.00 | 0.00 | 0.00 | 89 | 1019.5 |
| 20260508114520 | 44 | 171 | 0.0 | 2.0 | 0.00 | 0.00 | 0.00 | 87 | 1019.6 |
| 20260508113025 | 44 | 282 | 0.0 | 2.0 | 0.00 | 0.00 | 0.00 | 87 | 1019.4 |
| 20260508111511 | 45 | 227 | 0.0 | 2.0 | 0.00 | 0.00 | 0.00 | 88 | 1019.3 |
| 20260508110012 | 45 | 250 | 0.0 | 2.0 | 0.00 | 0.00 | 0.00 | 87 | 1018.9 |
| 20260508104510 | 45 | 233 | 0.0 | 2.0 | 0.00 | 0.00 | 0.00 | 87 | 1018.7 |
| 20260508103012 | 45 | 238 | 0.0 | 2.0 | 0.00 | 0.00 | 0.00 | 86 | 1018.6 |
| 20260508101514 | 45 | 240 | 0.0 | 2.0 | 0.00 | 0.00 | 0.00 | 85 | 1018.5 |
| 20260508100014 | 46 | 174 | 0.0 | 2.0 | 0.00 | 0.00 | 0.00 | 88 | 1018.5 |
| 20260508094511 | 46 | 163 | 0.0 | 2.0 | 0.00 | 0.00 | 0.00 | 88 | 1018.4 |
| 20260508093016 | 46 | 196 | 1.0 | 3.0 | 0.00 | 0.00 | 0.00 | 88 | 1018.4 |
| 20260508091522 | 46 | 122 | 0.0 | 2.0 | 0.00 | 0.00 | 0.00 | 88 | 1018.2 |
| 20260508090016 | 46 | 26 | 0.0 | 3.0 | 0.00 | 0.00 | 0.00 | 88 | 1018.1 |
| 20260508084516 | 46 | 134 | 1.0 | 4.0 | 0.00 | 0.00 | 0.00 | 88 | 1018.1 |
| 20260508083014 | 47 | 115 | 1.0 | 3.0 | 0.00 | 0.00 | 0.00 | 88 | 1018.0 |